Weather History for McCook, NE

Change the Weather History Date:

Thursday, November 22, 2012

  Actual Average Record
Temperature  
Mean Temperature 43 °F 35 °F  
Max Temperature 58 °F 49 °F 76 °F (2002)
Min Temperature 27 °F 21 °F -1 °F (1975)
Degree Days  
Heating Degree Days 22    
Moisture  
Dew Point 22 °F    
Average Humidity 48    
Maximum Humidity 66    
Minimum Humidity 30    
Precipitation  
Precipitation 0.00 in 0.02 in 0.36 in (1979)
Month to date precipitation 0.04 0.73  
Year to date precipitation 8.13 21.67  
Sea Level Pressure  
Sea Level Pressure 30.09 in    
Wind  
Wind Speed 11 mph (NW)    
Max Wind Speed 25 mph    
Max Gust Speed 37 mph    
Visibility 10 miles    
Events      
T = Trace of Precipitation, MM = Missing Value Source: NWS Daily Summary

Daily Weather History Graph

Daily Weather History Graph

Search for Another Location

Airport:

Trip Planner

Search our weather history database for the weather conditions in past years. The results will help you decide how hot, cold, wet, or windy it might be!

Date:

Astronomy

Nov. 22, 2012 Rise Set
Actual Time 7:36 AM CST 5:20 PM CST
Civil Twilight 7:06 AM CST 5:50 PM CST
Nautical Twilight 6:33 AM CST 6:23 PM CST
Astronomical Twilight 6:01 AM CST 6:55 PM CST
Moon 2:07 PM CST (11/22) 1:57 AM CST (11/22)
Length of Visible Light 10h 43m
Length of Day
9h 43m
Waxing Gibbous, 71% of the Moon is Illuminated
Nov 22
Waxing Gibbous
Nov 28
Full
Dec 6
Last Quarter
Dec 13
New
Dec 19
First Quarter

Hourly Weather History & Observations

Time (CST) Temp. Windchill Dew Point Humidity Pressure Visibility Wind Dir Wind Speed Gust Speed Precip Events Conditions
12:53 AM 34.0 °F 28.0 °F 18.0 °F 52% 29.78 in 10.0 mi West 6.9 mph - N/A   Clear
1:53 AM 33.1 °F 24.4 °F 19.0 °F 56% 29.79 in 10.0 mi WNW 11.5 mph - N/A   Clear
2:53 AM 30.9 °F 24.3 °F 19.0 °F 61% 29.79 in 10.0 mi WNW 6.9 mph - N/A   Clear
3:53 AM 30.9 °F 24.3 °F 18.0 °F 59% 29.81 in 10.0 mi SW 6.9 mph - N/A   Unknown
4:53 AM 28.0 °F 22.8 °F 18.0 °F 66% 29.82 in 10.0 mi SW 4.6 mph - N/A   Clear
5:53 AM 30.9 °F 21.7 °F 19.9 °F 64% 29.85 in 10.0 mi WSW 11.5 mph - N/A   Clear
6:53 AM 33.1 °F 27.7 °F 21.0 °F 61% 29.88 in 10.0 mi West 5.8 mph - N/A   Clear
7:53 AM 35.1 °F 28.6 °F 21.9 °F 59% 29.91 in 10.0 mi WNW 8.1 mph - N/A   Clear
8:53 AM 39.0 °F 34.8 °F 23.0 °F 53% 29.96 in 10.0 mi SW 5.8 mph - N/A   Clear
9:53 AM 57.0 °F - 28.9 °F 34% 29.99 in 10.0 mi North 18.4 mph - N/A   Clear
10:00 AM 55.4 °F - 28.4 °F 36% 29.99 in 10.0 mi North 18.4 mph - N/A   Clear
10:53 AM 57.0 °F - 33.1 °F 40% 30.04 in 10.0 mi North 24.2 mph - N/A   Clear
11:53 AM 54.0 °F - 34.0 °F 47% 30.09 in 10.0 mi North 21.9 mph 29.9 mph N/A   Clear
12:53 PM 55.9 °F - 34.0 °F 44% 30.10 in 10.0 mi NNW 24.2 mph 29.9 mph N/A   Clear
1:53 PM 57.0 °F - 28.9 °F 34% 30.12 in 10.0 mi NNW 25.3 mph 36.8 mph N/A   Clear
2:53 PM 57.0 °F - 26.1 °F 30% 30.14 in 10.0 mi NNW 25.3 mph 36.8 mph N/A   Clear
3:53 PM 54.0 °F - 25.0 °F 33% 30.18 in 10.0 mi North 17.3 mph 29.9 mph N/A   Clear
4:53 PM 51.1 °F - 25.0 °F 36% 30.25 in 10.0 mi North 17.3 mph - N/A   Clear
5:53 PM 42.1 °F 37.1 °F 21.9 °F 45% 30.31 in 10.0 mi North 8.1 mph - N/A   Clear
6:53 PM 39.0 °F 34.0 °F 19.9 °F 46% 30.34 in 10.0 mi NNW 6.9 mph - N/A   Clear
7:53 PM 35.1 °F 30.1 °F 16.0 °F 46% 30.38 in 10.0 mi North 5.8 mph - N/A   Clear
8:53 PM 34.0 °F 26.6 °F 16.0 °F 48% 30.40 in 10.0 mi WNW 9.2 mph - N/A   Clear
9:53 PM 32.0 °F 23.0 °F 15.1 °F 50% 30.41 in 10.0 mi WNW 11.5 mph - N/A   Clear
10:53 PM 30.0 °F 20.5 °F 14.0 °F 51% 30.44 in 10.0 mi WNW 11.5 mph - N/A   Clear
11:53 PM 28.0 °F 18.6 °F 14.0 °F 56% 30.47 in 10.0 mi WNW 10.4 mph - N/A   Clear